owner,sensor,date,latitude,longitude,relative_humidity,qcFlag 
DISL,ioos:station:DISL:MBLA:1,2017-09-01T00:00:00Z,30.4367,-88.0117,63.1,1111122 
DISL,ioos:station:DISL:MBLA:1,2017-09-01T00:30:00Z,30.4367,-88.0117,64.62,1111122 
DISL,ioos:station:DISL:MBLA:1,2017-09-01T01:00:00Z,30.4367,-88.0117,63.24,1111122 
DISL,ioos:station:DISL:MBLA:1,2017-09-01T01:30:00Z,30.4367,-88.0117,64.84,1111122 
DISL,ioos:station:DISL:MBLA:1,2017-09-01T02:00:00Z,30.4367,-88.0117,67.92,1111122 
DISL,ioos:station:DISL:MBLA:1,2017-09-01T02:30:00Z,30.4367,-88.0117,67.55,1111122 
DISL,ioos:station:DISL:MBLA:1,2017-09-01T03:00:00Z,30.4367,-88.0117,68.29,1111122 
DISL,ioos:station:DISL:MBLA:1,2017-09-01T03:30:00Z,30.4367,-88.0117,66.06,1111122 
DISL,ioos:station:DISL:MBLA:1,2017-09-01T04:00:00Z,30.4367,-88.0117,65.89,1111122 
DISL,ioos:station:DISL:MBLA:1,2017-09-01T04:30:00Z,30.4367,-88.0117,64.7,1111122 
DISL,ioos:station:DISL:MBLA:1,2017-09-01T05:00:00Z,30.4367,-88.0117,65.68,1111122 
DISL,ioos:station:DISL:MBLA:1,2017-09-01T05:30:00Z,30.4367,-88.0117,66.26,1111122 
DISL,ioos:station:DISL:MBLA:1,2017-09-01T06:00:00Z,30.4367,-88.0117,65.95,1111122 
DISL,ioos:station:DISL:MBLA:1,2017-09-01T06:30:00Z,30.4367,-88.0117,67.45,1111122 
DISL,ioos:station:DISL:MBLA:1,2017-09-01T07:00:00Z,30.4367,-88.0117,70.63,1111122 
DISL,ioos:station:DISL:MBLA:1,2017-09-01T07:30:00Z,30.4367,-88.0117,71.65,1111122 
DISL,ioos:station:DISL:MBLA:1,2017-09-01T08:00:00Z,30.4367,-88.0117,72.77,1111122 
DISL,ioos:station:DISL:MBLA:1,2017-09-01T08:30:00Z,30.4367,-88.0117,73.68,1111122 
DISL,ioos:station:DISL:MBLA:1,2017-09-01T09:00:00Z,30.4367,-88.0117,71.24,1111122 
DISL,ioos:station:DISL:MBLA:1,2017-09-01T09:30:00Z,30.4367,-88.0117,70.67,1111122 
DISL,ioos:station:DISL:MBLA:1,2017-09-01T10:00:00Z,30.4367,-88.0117,71.07,1111122 
DISL,ioos:station:DISL:MBLA:1,2017-09-01T10:30:00Z,30.4367,-88.0117,71.72,1111122 
DISL,ioos:station:DISL:MBLA:1,2017-09-01T11:00:00Z,30.4367,-88.0117,73.85,1111122 
DISL,ioos:station:DISL:MBLA:1,2017-09-01T11:30:00Z,30.4367,-88.0117,71.86,1111122 
DISL,ioos:station:DISL:MBLA:1,2017-09-01T12:00:00Z,30.4367,-88.0117,74.16,1111122 
DISL,ioos:station:DISL:MBLA:1,2017-09-01T12:30:00Z,30.4367,-88.0117,74.5,1111122 
DISL,ioos:station:DISL:MBLA:1,2017-09-01T13:00:00Z,30.4367,-88.0117,74.73,1111122 
DISL,ioos:station:DISL:MBLA:1,2017-09-01T13:30:00Z,30.4367,-88.0117,71.85,1111122 
DISL,ioos:station:DISL:MBLA:1,2017-09-01T14:00:00Z,30.4367,-88.0117,68.16,1111122 
DISL,ioos:station:DISL:MBLA:1,2017-09-01T14:30:00Z,30.4367,-88.0117,60.13,1111122 
DISL,ioos:station:DISL:MBLA:1,2017-09-01T15:00:00Z,30.4367,-88.0117,56.33,1111122 
DISL,ioos:station:DISL:MBLA:1,2017-09-01T15:30:00Z,30.4367,-88.0117,55.7,1111122 
DISL,ioos:station:DISL:MBLA:1,2017-09-01T16:00:00Z,30.4367,-88.0117,56.38,1111122 
DISL,ioos:station:DISL:MBLA:1,2017-09-01T16:30:00Z,30.4367,-88.0117,54.38,1111122 
DISL,ioos:station:DISL:MBLA:1,2017-09-01T17:00:00Z,30.4367,-88.0117,60.95,1111122 
DISL,ioos:station:DISL:MBLA:1,2017-09-01T17:30:00Z,30.4367,-88.0117,63.76,1111122 
DISL,ioos:station:DISL:MBLA:1,2017-09-01T18:00:00Z,30.4367,-88.0117,64.48,1111122 
DISL,ioos:station:DISL:MBLA:1,2017-09-01T18:30:00Z,30.4367,-88.0117,69.19,1111122 
DISL,ioos:station:DISL:MBLA:1,2017-09-01T19:00:00Z,30.4367,-88.0117,57.33,1111122 
DISL,ioos:station:DISL:MBLA:1,2017-09-01T19:30:00Z,30.4367,-88.0117,69.8,1111122 
DISL,ioos:station:DISL:MBLA:1,2017-09-01T20:00:00Z,30.4367,-88.0117,66.89,1111122 
DISL,ioos:station:DISL:MBLA:1,2017-09-01T20:30:00Z,30.4367,-88.0117,69.47,1111122 
DISL,ioos:station:DISL:MBLA:1,2017-09-01T21:00:00Z,30.4367,-88.0117,67.88,1111122 
DISL,ioos:station:DISL:MBLA:1,2017-09-01T21:30:00Z,30.4367,-88.0117,66.08,1111122 
DISL,ioos:station:DISL:MBLA:1,2017-09-01T22:00:00Z,30.4367,-88.0117,63.81,1111122 
DISL,ioos:station:DISL:MBLA:1,2017-09-01T22:30:00Z,30.4367,-88.0117,65.1,1111122 
DISL,ioos:station:DISL:MBLA:1,2017-09-01T23:00:00Z,30.4367,-88.0117,65.06,1111122 
DISL,ioos:station:DISL:MBLA:1,2017-09-01T23:30:00Z,30.4367,-88.0117,64.89,1111122 
DISL,ioos:station:DISL:MBLA:1,2017-09-02T00:00:00Z,30.4367,-88.0117,65.95,1111122 
DISL,ioos:station:DISL:MBLA:1,2017-09-02T00:30:00Z,30.4367,-88.0117,64.8,1111122 
DISL,ioos:station:DISL:MBLA:1,2017-09-02T01:00:00Z,30.4367,-88.0117,66.12,1111122 
DISL,ioos:station:DISL:MBLA:1,2017-09-02T01:30:00Z,30.4367,-88.0117,70.67,1111122 
DISL,ioos:station:DISL:MBLA:1,2017-09-02T02:00:00Z,30.4367,-88.0117,71.41,1111122 
DISL,ioos:station:DISL:MBLA:1,2017-09-02T02:30:00Z,30.4367,-88.0117,72.53,1111122 
DISL,ioos:station:DISL:MBLA:1,2017-09-02T03:00:00Z,30.4367,-88.0117,70.8,1111122 
DISL,ioos:station:DISL:MBLA:1,2017-09-02T03:30:00Z,30.4367,-88.0117,71.82,1111122 
DISL,ioos:station:DISL:MBLA:1,2017-09-02T04:00:00Z,30.4367,-88.0117,72.77,1111122 
DISL,ioos:station:DISL:MBLA:1,2017-09-02T04:30:00Z,30.4367,-88.0117,72.9,1111122 
DISL,ioos:station:DISL:MBLA:1,2017-09-02T05:00:00Z,30.4367,-88.0117,72.67,1111122 
DISL,ioos:station:DISL:MBLA:1,2017-09-02T05:30:00Z,30.4367,-88.0117,70.09,1111122 
DISL,ioos:station:DISL:MBLA:1,2017-09-02T06:00:00Z,30.4367,-88.0117,68.53,1111122 
DISL,ioos:station:DISL:MBLA:1,2017-09-02T06:30:00Z,30.4367,-88.0117,70.46,1111122 
DISL,ioos:station:DISL:MBLA:1,2017-09-02T07:00:00Z,30.4367,-88.0117,73.14,1111122 
DISL,ioos:station:DISL:MBLA:1,2017-09-02T07:30:00Z,30.4367,-88.0117,73.34,1111122 
DISL,ioos:station:DISL:MBLA:1,2017-09-02T08:00:00Z,30.4367,-88.0117,71.92,1111122 
DISL,ioos:station:DISL:MBLA:1,2017-09-02T08:30:00Z,30.4367,-88.0117,72.9,1111122 
DISL,ioos:station:DISL:MBLA:1,2017-09-02T09:00:00Z,30.4367,-88.0117,76.73,1111122 
DISL,ioos:station:DISL:MBLA:1,2017-09-02T09:30:00Z,30.4367,-88.0117,74.9,1111122 
DISL,ioos:station:DISL:MBLA:1,2017-09-02T10:00:00Z,30.4367,-88.0117,73.92,1111122 
DISL,ioos:station:DISL:MBLA:1,2017-09-02T10:30:00Z,30.4367,-88.0117,72.53,1111122 
DISL,ioos:station:DISL:MBLA:1,2017-09-02T11:00:00Z,30.4367,-88.0117,74.77,1111122 
DISL,ioos:station:DISL:MBLA:1,2017-09-02T11:30:00Z,30.4367,-88.0117,77.14,1111122 
DISL,ioos:station:DISL:MBLA:1,2017-09-02T12:00:00Z,30.4367,-88.0117,77.72,1111122 
DISL,ioos:station:DISL:MBLA:1,2017-09-02T12:30:00Z,30.4367,-88.0117,71.55,1111122 
DISL,ioos:station:DISL:MBLA:1,2017-09-02T13:00:00Z,30.4367,-88.0117,68.19,1111122 
DISL,ioos:station:DISL:MBLA:1,2017-09-02T13:30:00Z,30.4367,-88.0117,70.39,1111122 
DISL,ioos:station:DISL:MBLA:1,2017-09-02T14:00:00Z,30.4367,-88.0117,69.92,1111122 
DISL,ioos:station:DISL:MBLA:1,2017-09-02T14:30:00Z,30.4367,-88.0117,70.19,1111122 
DISL,ioos:station:DISL:MBLA:1,2017-09-02T15:00:00Z,30.4367,-88.0117,68.45,1111122 
DISL,ioos:station:DISL:MBLA:1,2017-09-02T15:30:00Z,30.4367,-88.0117,68.27,1111122 
DISL,ioos:station:DISL:MBLA:1,2017-09-02T16:00:00Z,30.4367,-88.0117,69.93,1111122 
DISL,ioos:station:DISL:MBLA:1,2017-09-02T16:30:00Z,30.4367,-88.0117,63.7,1111122 
DISL,ioos:station:DISL:MBLA:1,2017-09-02T17:00:00Z,30.4367,-88.0117,64.58,1111122 
DISL,ioos:station:DISL:MBLA:1,2017-09-02T17:30:00Z,30.4367,-88.0117,65.93,1111122 
DISL,ioos:station:DISL:MBLA:1,2017-09-02T18:00:00Z,30.4367,-88.0117,65.36,1111122 
DISL,ioos:station:DISL:MBLA:1,2017-09-02T18:30:00Z,30.4367,-88.0117,65.8,1111122 
DISL,ioos:station:DISL:MBLA:1,2017-09-02T19:00:00Z,30.4367,-88.0117,67.39,1111122 
DISL,ioos:station:DISL:MBLA:1,2017-09-02T19:30:00Z,30.4367,-88.0117,69.8,1111122 
DISL,ioos:station:DISL:MBLA:1,2017-09-02T20:00:00Z,30.4367,-88.0117,68.11,1111122 
DISL,ioos:station:DISL:MBLA:1,2017-09-02T20:30:00Z,30.4367,-88.0117,70.99,1111122 
DISL,ioos:station:DISL:MBLA:1,2017-09-02T21:00:00Z,30.4367,-88.0117,66.82,1111122 
DISL,ioos:station:DISL:MBLA:1,2017-09-02T21:30:00Z,30.4367,-88.0117,63.39,1111122 
DISL,ioos:station:DISL:MBLA:1,2017-09-02T22:00:00Z,30.4367,-88.0117,60.21,1111122 
DISL,ioos:station:DISL:MBLA:1,2017-09-02T22:30:00Z,30.4367,-88.0117,65.53,1111122 
DISL,ioos:station:DISL:MBLA:1,2017-09-02T23:00:00Z,30.4367,-88.0117,63.9,1111122 
DISL,ioos:station:DISL:MBLA:1,2017-09-02T23:30:00Z,30.4367,-88.0117,65.73,1111122 
DISL,ioos:station:DISL:MBLA:1,2017-09-03T00:00:00Z,30.4367,-88.0117,65.66,1111122 
DISL,ioos:station:DISL:MBLA:1,2017-09-03T00:30:00Z,30.4367,-88.0117,63.46,1111122 
DISL,ioos:station:DISL:MBLA:1,2017-09-03T01:00:00Z,30.4367,-88.0117,58.08,1111122 
DISL,ioos:station:DISL:MBLA:1,2017-09-03T01:30:00Z,30.4367,-88.0117,61.75,1111122 
DISL,ioos:station:DISL:MBLA:1,2017-09-03T02:00:00Z,30.4367,-88.0117,63.65,1111122 
DISL,ioos:station:DISL:MBLA:1,2017-09-03T02:30:00Z,30.4367,-88.0117,63.35,1111122 
DISL,ioos:station:DISL:MBLA:1,2017-09-03T03:00:00Z,30.4367,-88.0117,67.07,1111122 
DISL,ioos:station:DISL:MBLA:1,2017-09-03T03:30:00Z,30.4367,-88.0117,68.73,1111122 
DISL,ioos:station:DISL:MBLA:1,2017-09-03T04:00:00Z,30.4367,-88.0117,67.58,1111122 
DISL,ioos:station:DISL:MBLA:1,2017-09-03T04:30:00Z,30.4367,-88.0117,68.7,1111122 
DISL,ioos:station:DISL:MBLA:1,2017-09-03T05:00:00Z,30.4367,-88.0117,68.06,1111122 
DISL,ioos:station:DISL:MBLA:1,2017-09-03T05:30:00Z,30.4367,-88.0117,70.26,1111122 
DISL,ioos:station:DISL:MBLA:1,2017-09-03T06:00:00Z,30.4367,-88.0117,63.01,1111122 
DISL,ioos:station:DISL:MBLA:1,2017-09-03T06:30:00Z,30.4367,-88.0117,61.72,1111122 
DISL,ioos:station:DISL:MBLA:1,2017-09-03T07:00:00Z,30.4367,-88.0117,63.75,1111122 
DISL,ioos:station:DISL:MBLA:1,2017-09-03T07:30:00Z,30.4367,-88.0117,64.9,1111122 
DISL,ioos:station:DISL:MBLA:1,2017-09-03T08:00:00Z,30.4367,-88.0117,64.26,1111122 
DISL,ioos:station:DISL:MBLA:1,2017-09-03T08:30:00Z,30.4367,-88.0117,66.19,1111122 
DISL,ioos:station:DISL:MBLA:1,2017-09-03T09:00:00Z,30.4367,-88.0117,66.33,1111122 
DISL,ioos:station:DISL:MBLA:1,2017-09-03T09:30:00Z,30.4367,-88.0117,75.24,1111122 
DISL,ioos:station:DISL:MBLA:1,2017-09-03T10:00:00Z,30.4367,-88.0117,76.56,1111122 
DISL,ioos:station:DISL:MBLA:1,2017-09-03T10:30:00Z,30.4367,-88.0117,75.07,1111122 
DISL,ioos:station:DISL:MBLA:1,2017-09-03T11:00:00Z,30.4367,-88.0117,72.7,1111122 
DISL,ioos:station:DISL:MBLA:1,2017-09-03T11:30:00Z,30.4367,-88.0117,71.48,1111122 
DISL,ioos:station:DISL:MBLA:1,2017-09-03T12:00:00Z,30.4367,-88.0117,71.55,1111122 
DISL,ioos:station:DISL:MBLA:1,2017-09-03T12:30:00Z,30.4367,-88.0117,71.58,1111122 
DISL,ioos:station:DISL:MBLA:1,2017-09-03T13:00:00Z,30.4367,-88.0117,64.4,1111122 
DISL,ioos:station:DISL:MBLA:1,2017-09-03T13:30:00Z,30.4367,-88.0117,66.9,1111122 
DISL,ioos:station:DISL:MBLA:1,2017-09-03T14:00:00Z,30.4367,-88.0117,68.19,1111122 
DISL,ioos:station:DISL:MBLA:1,2017-09-03T14:30:00Z,30.4367,-88.0117,68.87,1111122 
DISL,ioos:station:DISL:MBLA:1,2017-09-03T15:00:00Z,30.4367,-88.0117,67.65,1111122 
DISL,ioos:station:DISL:MBLA:1,2017-09-03T15:30:00Z,30.4367,-88.0117,63.41,1111122 
DISL,ioos:station:DISL:MBLA:1,2017-09-03T16:00:00Z,30.4367,-88.0117,65.57,1111122 
DISL,ioos:station:DISL:MBLA:1,2017-09-03T16:30:00Z,30.4367,-88.0117,61.91,1111122 
DISL,ioos:station:DISL:MBLA:1,2017-09-03T17:00:00Z,30.4367,-88.0117,58.99,1111122 
DISL,ioos:station:DISL:MBLA:1,2017-09-03T17:30:00Z,30.4367,-88.0117,53.77,1111122 
DISL,ioos:station:DISL:MBLA:1,2017-09-03T18:00:00Z,30.4367,-88.0117,46.52,1111122 
DISL,ioos:station:DISL:MBLA:1,2017-09-03T18:30:00Z,30.4367,-88.0117,43.64,1111122 
DISL,ioos:station:DISL:MBLA:1,2017-09-03T19:00:00Z,30.4367,-88.0117,42.69,1111122 
DISL,ioos:station:DISL:MBLA:1,2017-09-03T19:30:00Z,30.4367,-88.0117,36.86,1111122 
DISL,ioos:station:DISL:MBLA:1,2017-09-03T20:00:00Z,30.4367,-88.0117,34.11,1111122 
DISL,ioos:station:DISL:MBLA:1,2017-09-03T20:30:00Z,30.4367,-88.0117,30.86,1111122 
DISL,ioos:station:DISL:MBLA:1,2017-09-03T21:00:00Z,30.4367,-88.0117,30.49,1111122 
DISL,ioos:station:DISL:MBLA:1,2017-09-03T21:30:00Z,30.4367,-88.0117,29.91,1111122 
DISL,ioos:station:DISL:MBLA:1,2017-09-03T22:00:00Z,30.4367,-88.0117,29.64,1111122 
DISL,ioos:station:DISL:MBLA:1,2017-09-03T22:30:00Z,30.4367,-88.0117,30.52,1111122 
DISL,ioos:station:DISL:MBLA:1,2017-09-03T23:00:00Z,30.4367,-88.0117,33.53,1111122 
DISL,ioos:station:DISL:MBLA:1,2017-09-03T23:30:00Z,30.4367,-88.0117,37.7,1111122 
DISL,ioos:station:DISL:MBLA:1,2017-09-04T00:00:00Z,30.4367,-88.0117,42.51,1111122 
DISL,ioos:station:DISL:MBLA:1,2017-09-04T00:30:00Z,30.4367,-88.0117,46.62,1111122 
DISL,ioos:station:DISL:MBLA:1,2017-09-04T01:00:00Z,30.4367,-88.0117,48.52,1111122 
DISL,ioos:station:DISL:MBLA:1,2017-09-04T01:30:00Z,30.4367,-88.0117,45.27,1111122 
DISL,ioos:station:DISL:MBLA:1,2017-09-04T02:00:00Z,30.4367,-88.0117,47.95,1111122 
DISL,ioos:station:DISL:MBLA:1,2017-09-04T02:30:00Z,30.4367,-88.0117,53.98,1111122 
DISL,ioos:station:DISL:MBLA:1,2017-09-04T03:00:00Z,30.4367,-88.0117,54.76,1111122 
DISL,ioos:station:DISL:MBLA:1,2017-09-04T03:30:00Z,30.4367,-88.0117,51.11,1111122 
DISL,ioos:station:DISL:MBLA:1,2017-09-04T04:00:00Z,30.4367,-88.0117,54.02,1111122 
DISL,ioos:station:DISL:MBLA:1,2017-09-04T04:30:00Z,30.4367,-88.0117,55.28,1111122 
DISL,ioos:station:DISL:MBLA:1,2017-09-04T05:00:00Z,30.4367,-88.0117,63.48,1111122 
DISL,ioos:station:DISL:MBLA:1,2017-09-04T05:30:00Z,30.4367,-88.0117,72.36,1111122 
DISL,ioos:station:DISL:MBLA:1,2017-09-04T06:00:00Z,30.4367,-88.0117,71.68,1111122 
DISL,ioos:station:DISL:MBLA:1,2017-09-04T06:30:00Z,30.4367,-88.0117,65.55,1111122 
DISL,ioos:station:DISL:MBLA:1,2017-09-04T07:00:00Z,30.4367,-88.0117,65.21,1111122 
DISL,ioos:station:DISL:MBLA:1,2017-09-04T07:30:00Z,30.4367,-88.0117,62.46,1111122 
DISL,ioos:station:DISL:MBLA:1,2017-09-04T08:00:00Z,30.4367,-88.0117,66.7,1111122 
DISL,ioos:station:DISL:MBLA:1,2017-09-04T08:30:00Z,30.4367,-88.0117,69.68,1111122 
DISL,ioos:station:DISL:MBLA:1,2017-09-04T09:00:00Z,30.4367,-88.0117,71.0,1111122 
DISL,ioos:station:DISL:MBLA:1,2017-09-04T09:30:00Z,30.4367,-88.0117,66.87,1111122 
DISL,ioos:station:DISL:MBLA:1,2017-09-04T10:00:00Z,30.4367,-88.0117,64.7,1111122 
DISL,ioos:station:DISL:MBLA:1,2017-09-04T10:30:00Z,30.4367,-88.0117,65.38,1111122 
DISL,ioos:station:DISL:MBLA:1,2017-09-04T11:00:00Z,30.4367,-88.0117,69.58,1111122 
DISL,ioos:station:DISL:MBLA:1,2017-09-04T11:30:00Z,30.4367,-88.0117,69.85,1111122 
DISL,ioos:station:DISL:MBLA:1,2017-09-04T12:00:00Z,30.4367,-88.0117,67.75,1111122 
DISL,ioos:station:DISL:MBLA:1,2017-09-04T12:30:00Z,30.4367,-88.0117,64.12,1111122 
DISL,ioos:station:DISL:MBLA:1,2017-09-04T13:00:00Z,30.4367,-88.0117,65.41,1111122 
DISL,ioos:station:DISL:MBLA:1,2017-09-04T13:30:00Z,30.4367,-88.0117,63.72,1111122 
DISL,ioos:station:DISL:MBLA:1,2017-09-04T14:00:00Z,30.4367,-88.0117,61.18,1111122 
DISL,ioos:station:DISL:MBLA:1,2017-09-04T14:30:00Z,30.4367,-88.0117,59.74,1111122 
DISL,ioos:station:DISL:MBLA:1,2017-09-04T15:00:00Z,30.4367,-88.0117,59.64,1111122 
DISL,ioos:station:DISL:MBLA:1,2017-09-04T15:30:00Z,30.4367,-88.0117,58.75,1111122 
DISL,ioos:station:DISL:MBLA:1,2017-09-04T16:00:00Z,30.4367,-88.0117,56.89,1111122 
DISL,ioos:station:DISL:MBLA:1,2017-09-04T16:30:00Z,30.4367,-88.0117,52.38,1111122 
DISL,ioos:station:DISL:MBLA:1,2017-09-04T17:00:00Z,30.4367,-88.0117,48.15,1111122 
DISL,ioos:station:DISL:MBLA:1,2017-09-04T17:30:00Z,30.4367,-88.0117,44.66,1111122 
DISL,ioos:station:DISL:MBLA:1,2017-09-04T18:00:00Z,30.4367,-88.0117,37.44,1111122 
DISL,ioos:station:DISL:MBLA:1,2017-09-04T18:30:00Z,30.4367,-88.0117,37.57,1111122 
DISL,ioos:station:DISL:MBLA:1,2017-09-04T19:00:00Z,30.4367,-88.0117,34.18,1111122 
DISL,ioos:station:DISL:MBLA:1,2017-09-04T19:30:00Z,30.4367,-88.0117,45.09,1111122 
DISL,ioos:station:DISL:MBLA:1,2017-09-04T20:00:00Z,30.4367,-88.0117,47.59,1111122 
DISL,ioos:station:DISL:MBLA:1,2017-09-04T20:30:00Z,30.4367,-88.0117,44.82,1111122 
DISL,ioos:station:DISL:MBLA:1,2017-09-04T21:00:00Z,30.4367,-88.0117,43.87,1111122 
DISL,ioos:station:DISL:MBLA:1,2017-09-04T21:30:00Z,30.4367,-88.0117,48.72,1111122 
DISL,ioos:station:DISL:MBLA:1,2017-09-04T22:00:00Z,30.4367,-88.0117,52.75,1111122 
DISL,ioos:station:DISL:MBLA:1,2017-09-04T22:30:00Z,30.4367,-88.0117,50.31,1111122 
DISL,ioos:station:DISL:MBLA:1,2017-09-04T23:00:00Z,30.4367,-88.0117,52.35,1111122 
DISL,ioos:station:DISL:MBLA:1,2017-09-04T23:30:00Z,30.4367,-88.0117,52.92,1111122 
DISL,ioos:station:DISL:MBLA:1,2017-09-05T00:00:00Z,30.4367,-88.0117,53.6,1111122 
DISL,ioos:station:DISL:MBLA:1,2017-09-05T00:30:00Z,30.4367,-88.0117,52.52,1111122 
DISL,ioos:station:DISL:MBLA:1,2017-09-05T01:00:00Z,30.4367,-88.0117,59.37,1111122 
DISL,ioos:station:DISL:MBLA:1,2017-09-05T01:30:00Z,30.4367,-88.0117,60.12,1111122 
DISL,ioos:station:DISL:MBLA:1,2017-09-05T02:00:00Z,30.4367,-88.0117,59.18,1111122 
DISL,ioos:station:DISL:MBLA:1,2017-09-05T02:30:00Z,30.4367,-88.0117,60.74,1111122 
DISL,ioos:station:DISL:MBLA:1,2017-09-05T03:00:00Z,30.4367,-88.0117,59.52,1111122 
DISL,ioos:station:DISL:MBLA:1,2017-09-05T03:30:00Z,30.4367,-88.0117,58.74,1111122 
DISL,ioos:station:DISL:MBLA:1,2017-09-05T04:00:00Z,30.4367,-88.0117,56.7,1111122 
DISL,ioos:station:DISL:MBLA:1,2017-09-05T04:30:00Z,30.4367,-88.0117,61.18,1111122 
DISL,ioos:station:DISL:MBLA:1,2017-09-05T05:00:00Z,30.4367,-88.0117,59.11,1111122 
DISL,ioos:station:DISL:MBLA:1,2017-09-05T05:30:00Z,30.4367,-88.0117,62.16,1111122 
DISL,ioos:station:DISL:MBLA:1,2017-09-05T06:00:00Z,30.4367,-88.0117,58.3,1111122 
DISL,ioos:station:DISL:MBLA:1,2017-09-05T06:30:00Z,30.4367,-88.0117,62.13,1111122 
DISL,ioos:station:DISL:MBLA:1,2017-09-05T07:00:00Z,30.4367,-88.0117,62.94,1111122 
DISL,ioos:station:DISL:MBLA:1,2017-09-05T07:30:00Z,30.4367,-88.0117,65.48,1111122 
DISL,ioos:station:DISL:MBLA:1,2017-09-05T08:00:00Z,30.4367,-88.0117,67.89,1111122 
DISL,ioos:station:DISL:MBLA:1,2017-09-05T08:30:00Z,30.4367,-88.0117,69.75,1111122 
DISL,ioos:station:DISL:MBLA:1,2017-09-05T09:00:00Z,30.4367,-88.0117,67.21,1111122 
DISL,ioos:station:DISL:MBLA:1,2017-09-05T09:30:00Z,30.4367,-88.0117,68.36,1111122 
DISL,ioos:station:DISL:MBLA:1,2017-09-05T10:00:00Z,30.4367,-88.0117,69.34,1111122 
DISL,ioos:station:DISL:MBLA:1,2017-09-05T10:30:00Z,30.4367,-88.0117,69.78,1111122 
DISL,ioos:station:DISL:MBLA:1,2017-09-05T11:00:00Z,30.4367,-88.0117,69.68,1111122 
DISL,ioos:station:DISL:MBLA:1,2017-09-05T11:30:00Z,30.4367,-88.0117,69.31,1111122 
DISL,ioos:station:DISL:MBLA:1,2017-09-05T12:00:00Z,30.4367,-88.0117,69.95,1111122 
DISL,ioos:station:DISL:MBLA:1,2017-09-05T12:30:00Z,30.4367,-88.0117,69.72,1111122 
DISL,ioos:station:DISL:MBLA:1,2017-09-05T13:00:00Z,30.4367,-88.0117,70.46,1111122 
DISL,ioos:station:DISL:MBLA:1,2017-09-05T13:30:00Z,30.4367,-88.0117,70.46,1111122 
DISL,ioos:station:DISL:MBLA:1,2017-09-05T14:00:00Z,30.4367,-88.0117,69.04,1111122 
DISL,ioos:station:DISL:MBLA:1,2017-09-05T14:30:00Z,30.4367,-88.0117,68.94,1111122 
DISL,ioos:station:DISL:MBLA:1,2017-09-05T15:00:00Z,30.4367,-88.0117,66.43,1111122 
DISL,ioos:station:DISL:MBLA:1,2017-09-05T15:30:00Z,30.4367,-88.0117,66.53,1111122 
DISL,ioos:station:DISL:MBLA:1,2017-09-05T16:00:00Z,30.4367,-88.0117,62.39,1111122 
DISL,ioos:station:DISL:MBLA:1,2017-09-05T16:30:00Z,30.4367,-88.0117,59.57,1111122 
DISL,ioos:station:DISL:MBLA:1,2017-09-05T17:00:00Z,30.4367,-88.0117,55.46,1111122 
DISL,ioos:station:DISL:MBLA:1,2017-09-05T17:30:00Z,30.4367,-88.0117,57.53,1111122 
DISL,ioos:station:DISL:MBLA:1,2017-09-05T18:00:00Z,30.4367,-88.0117,55.7,1111122 
DISL,ioos:station:DISL:MBLA:1,2017-09-05T18:30:00Z,30.4367,-88.0117,49.94,1111122 
DISL,ioos:station:DISL:MBLA:1,2017-09-05T19:00:00Z,30.4367,-88.0117,48.75,1111122 
DISL,ioos:station:DISL:MBLA:1,2017-09-05T19:30:00Z,30.4367,-88.0117,48.86,1111122 
DISL,ioos:station:DISL:MBLA:1,2017-09-05T20:00:00Z,30.4367,-88.0117,46.72,1111122 
DISL,ioos:station:DISL:MBLA:1,2017-09-05T20:30:00Z,30.4367,-88.0117,45.84,1111122 
DISL,ioos:station:DISL:MBLA:1,2017-09-05T21:00:00Z,30.4367,-88.0117,48.38,1111122 
DISL,ioos:station:DISL:MBLA:1,2017-09-05T21:30:00Z,30.4367,-88.0117,51.53,1111122 
DISL,ioos:station:DISL:MBLA:1,2017-09-05T22:00:00Z,30.4367,-88.0117,50.38,1111122 
DISL,ioos:station:DISL:MBLA:1,2017-09-05T22:30:00Z,30.4367,-88.0117,52.99,1111122 
DISL,ioos:station:DISL:MBLA:1,2017-09-05T23:00:00Z,30.4367,-88.0117,55.02,1111122 
DISL,ioos:station:DISL:MBLA:1,2017-09-05T23:30:00Z,30.4367,-88.0117,54.96,1111122 
DISL,ioos:station:DISL:MBLA:1,2017-09-06T00:00:00Z,30.4367,-88.0117,57.34,1111122 
DISL,ioos:station:DISL:MBLA:1,2017-09-06T00:30:00Z,30.4367,-88.0117,57.24,1111122 
DISL,ioos:station:DISL:MBLA:1,2017-09-06T01:00:00Z,30.4367,-88.0117,59.72,1111122 
DISL,ioos:station:DISL:MBLA:1,2017-09-06T01:30:00Z,30.4367,-88.0117,62.36,1111122 
DISL,ioos:station:DISL:MBLA:1,2017-09-06T02:00:00Z,30.4367,-88.0117,63.31,1111122 
DISL,ioos:station:DISL:MBLA:1,2017-09-06T02:30:00Z,30.4367,-88.0117,63.31,1111122 
DISL,ioos:station:DISL:MBLA:1,2017-09-06T03:00:00Z,30.4367,-88.0117,62.8,1111122 
DISL,ioos:station:DISL:MBLA:1,2017-09-06T03:30:00Z,30.4367,-88.0117,62.8,1111122 
DISL,ioos:station:DISL:MBLA:1,2017-09-06T04:00:00Z,30.4367,-88.0117,66.26,1111122 
DISL,ioos:station:DISL:MBLA:1,2017-09-06T04:30:00Z,30.4367,-88.0117,67.24,1111122 
DISL,ioos:station:DISL:MBLA:1,2017-09-06T05:00:00Z,30.4367,-88.0117,67.68,1111122 
DISL,ioos:station:DISL:MBLA:1,2017-09-06T05:30:00Z,30.4367,-88.0117,68.09,1111122 
DISL,ioos:station:DISL:MBLA:1,2017-09-06T06:00:00Z,30.4367,-88.0117,65.41,1111122 
DISL,ioos:station:DISL:MBLA:1,2017-09-06T06:30:00Z,30.4367,-88.0117,76.97,1111122 
DISL,ioos:station:DISL:MBLA:1,2017-09-06T07:00:00Z,30.4367,-88.0117,76.97,1111122 
DISL,ioos:station:DISL:MBLA:1,2017-09-06T07:30:00Z,30.4367,-88.0117,78.75,1111122 
DISL,ioos:station:DISL:MBLA:1,2017-09-06T08:00:00Z,30.4367,-88.0117,76.96,1111122 
DISL,ioos:station:DISL:MBLA:1,2017-09-06T08:30:00Z,30.4367,-88.0117,74.72,1111122 
DISL,ioos:station:DISL:MBLA:1,2017-09-06T09:00:00Z,30.4367,-88.0117,71.84,1111122 
DISL,ioos:station:DISL:MBLA:1,2017-09-06T09:30:00Z,30.4367,-88.0117,77.17,1111122 
DISL,ioos:station:DISL:MBLA:1,2017-09-06T10:00:00Z,30.4367,-88.0117,76.66,1111122 
DISL,ioos:station:DISL:MBLA:1,2017-09-06T10:30:00Z,30.4367,-88.0117,76.69,1111122 
DISL,ioos:station:DISL:MBLA:1,2017-09-06T11:00:00Z,30.4367,-88.0117,82.8,1111122 
DISL,ioos:station:DISL:MBLA:1,2017-09-06T11:30:00Z,30.4367,-88.0117,81.8,1111122 
DISL,ioos:station:DISL:MBLA:1,2017-09-06T12:00:00Z,30.4367,-88.0117,80.9,1111122 
DISL,ioos:station:DISL:MBLA:1,2017-09-06T12:30:00Z,30.4367,-88.0117,81.1,1111122 
DISL,ioos:station:DISL:MBLA:1,2017-09-06T13:00:00Z,30.4367,-88.0117,78.56,1111122 
DISL,ioos:station:DISL:MBLA:1,2017-09-06T13:30:00Z,30.4367,-88.0117,78.35,1111122 
DISL,ioos:station:DISL:MBLA:1,2017-09-06T14:00:00Z,30.4367,-88.0117,76.49,1111122 
DISL,ioos:station:DISL:MBLA:1,2017-09-06T14:30:00Z,30.4367,-88.0117,76.28,1111122 
DISL,ioos:station:DISL:MBLA:1,2017-09-06T15:00:00Z,30.4367,-88.0117,76.25,1111122 
DISL,ioos:station:DISL:MBLA:1,2017-09-06T15:30:00Z,30.4367,-88.0117,76.76,1111122 
DISL,ioos:station:DISL:MBLA:1,2017-09-06T16:00:00Z,30.4367,-88.0117,76.39,1111122 
DISL,ioos:station:DISL:MBLA:1,2017-09-06T16:30:00Z,30.4367,-88.0117,75.17,1111122 
DISL,ioos:station:DISL:MBLA:1,2017-09-06T17:00:00Z,30.4367,-88.0117,63.47,1111122 
DISL,ioos:station:DISL:MBLA:1,2017-09-06T17:30:00Z,30.4367,-88.0117,61.55,1111122 
DISL,ioos:station:DISL:MBLA:1,2017-09-06T18:00:00Z,30.4367,-88.0117,59.58,1111122 
DISL,ioos:station:DISL:MBLA:1,2017-09-06T18:30:00Z,30.4367,-88.0117,63.07,1111122 
DISL,ioos:station:DISL:MBLA:1,2017-09-06T19:00:00Z,30.4367,-88.0117,59.11,1111122 
DISL,ioos:station:DISL:MBLA:1,2017-09-06T19:30:00Z,30.4367,-88.0117,54.4,1111122 
DISL,ioos:station:DISL:MBLA:1,2017-09-06T20:00:00Z,30.4367,-88.0117,53.28,1111122 
DISL,ioos:station:DISL:MBLA:1,2017-09-06T20:30:00Z,30.4367,-88.0117,53.31,1111122 
DISL,ioos:station:DISL:MBLA:1,2017-09-06T21:00:00Z,30.4367,-88.0117,53.18,1111122 
DISL,ioos:station:DISL:MBLA:1,2017-09-06T21:30:00Z,30.4367,-88.0117,50.77,1111122 
DISL,ioos:station:DISL:MBLA:1,2017-09-06T22:00:00Z,30.4367,-88.0117,51.45,1111122 
DISL,ioos:station:DISL:MBLA:1,2017-09-06T22:30:00Z,30.4367,-88.0117,50.87,1111122 
DISL,ioos:station:DISL:MBLA:1,2017-09-06T23:00:00Z,30.4367,-88.0117,52.7,1111122 
DISL,ioos:station:DISL:MBLA:1,2017-09-06T23:30:00Z,30.4367,-88.0117,48.97,1111122 